This demonstration page uses our WeatherBlox Daily Observations layout. Learn more.

Left ArrowRight Arrow

39.51506, -84.39828

Hourly Observations for July 13, 2021

Temp ( °F °C ) Dew Point ( °F °C ) Humidity (%) Winds ( mph kmh ) Pressure ( in mb ) Visibility ( mi km ) Precip ( " mm )
12:15 am 00:15 Partly Cloudy 72 22 N/A N/A N N/A 30.06 1018 7 11 0.01 0.25
12:35 am 00:35 Mostly Cloudy 73 23 N/A N/A S 8 13 30.06 1018 10 16 0.01 0.25
12:55 am 00:55 Cloudy with Light Rain 72 22 72 22 100 100 S 6 9 30.07 1018 5 8 0.01 0.25
1:15 am 01:15 Mostly Cloudy 72 22 N/A N/A S 3 6 30.06 1018 10 16 N/A
1:35 am 01:35 Partly Cloudy 72 22 N/A N/A SW 3 6 30.06 1018 10 16 N/A
1:55 am 01:55 Partly Cloudy 73 22.6 73 22.6 100 100 SW 5 7 30.06 1018 10 16 N/A
2:15 am 02:15 Mostly Cloudy 73 22.8 73 22.7 99 99 SSW 8 13 30.06 1018 10 16 N/A
2:35 am 02:35 Cloudy 73 23 73 23 100 100 SSW 6 9 30.06 1018 10 16 N/A
2:55 am 02:55 Partly Cloudy 72 22 N/A N/A S 8 13 30.06 1018 10 16 N/A
3:15 am 03:15 Partly Cloudy 72 22 N/A N/A S 7 11 30.05 1018 10 16 N/A
3:35 am 03:35 Mostly Cloudy 72 22 N/A N/A S 7 11 30.05 1018 10 16 N/A
3:55 am 03:55 Mostly Cloudy 72 22 N/A N/A SSW 6 9 30.05 1018 10 16 N/A
4:15 am 04:15 Clear 72 22 N/A N/A SSW 7 11 30.05 1018 10 16 N/A
4:35 am 04:35 Cloudy 72 22 N/A N/A SSW 8 13 30.04 1017 10 16 N/A
4:55 am 04:55 Cloudy 72 22 N/A N/A S 8 13 30.04 1017 10 16 N/A
5:15 am 05:15 Cloudy 72 22 N/A N/A S 8 13 30.04 1017 10 16 N/A
5:35 am 05:35 Mostly Cloudy 72 22 N/A N/A SSW 7 11 30.04 1017 10 16 N/A
5:55 am 05:55 Cloudy 72 22 N/A N/A S 8 13 30.05 1018 10 16 N/A
6:15 am 06:15 Cloudy 72 22 N/A N/A S 10 17 30.06 1018 10 16 0.01 0.25
6:35 am 06:35 Cloudy with Light Rain 72 22 N/A N/A S 8 13 30.07 1018 10 16 0.01 0.25
6:55 am 06:55 Cloudy with Light Rain 72 22 N/A N/A SSW 9 15 30.08 1019 10 16 0.01 0.25
7:15 am 07:15 Cloudy with Light Rain 72 22 N/A N/A SSW 7 11 30.08 1019 7 11 N/A
7:35 am 07:35 Cloudy with Light Rain 72 22 N/A N/A SSW 9 15 30.09 1019 10 16 N/A
7:55 am 07:55 Cloudy with Light Rain 72 22 N/A N/A SSW 8 13 30.09 1019 10 16 N/A
8:15 am 08:15 Cloudy 72 22 N/A N/A S 8 13 30.10 1019 10 16 N/A
8:35 am 08:35 Cloudy 72 22 N/A N/A S 7 11 30.10 1019 10 16 N/A
8:55 am 08:55 Cloudy 73 22.6 73 22.5 99 99 SSW 9 15 30.10 1019 10 16 N/A
9:15 am 09:15 Cloudy 73 22.8 73 22.7 99 99 SSW 7 11 30.11 1020 10 16 N/A
9:35 am 09:35 Cloudy with Light Rain 73 23 73 22.9 99 99 SSW 9 15 30.11 1020 10 16 N/A
9:55 am 09:55 Cloudy 74 23.1 73 22.6 97 97 SSW 10 17 30.11 1020 10 16 N/A
10:15 am 10:15 Mostly Cloudy with Light Rain 72 22 72 22 100 100 SW 7 11 30.11 1020 3 4 N/A
10:35 am 10:35 Partly Cloudy 73 23 N/A N/A SSW 7 11 30.11 1020 7 11 N/A
10:55 am 10:55 Partly Cloudy 75 23.7 73 23 96 96 SSW 9 15 30.11 1020 10 16 N/A
11:15 am 11:15 Mostly Cloudy 76 24.7 73 23 90 90 SSW 9 15 30.10 1019 10 16 N/A
11:35 am 11:35 Mostly Cloudy 76 24.6 73 22.9 90 90 SSW 8 13 30.09 1019 10 16 N/A
11:55 am 11:55 Cloudy with Light Rain 74 23.2 72 22.1 94 94 SW 9 15 30.11 1020 10 16 N/A
12:15 pm 12:15 Partly Cloudy 75 23.8 73 22.8 94 94 SSW 7 11 30.09 1019 10 16 N/A
12:35 pm 12:35 Partly Cloudy 78 25.4 74 23.6 90 90 SW 12 19 30.08 1019 10 16 N/A
12:55 pm 12:55 Sunny 78 25.8 73 22.7 83 83 SW 12 19 30.08 1019 10 16 N/A
1:15 pm 13:15 Mostly Cloudy 78 25.8 72 22.4 82 82 SW 8 13 30.08 1019 10 16 0.01 0.25
1:35 pm 13:35 Partly Cloudy 80 26.9 71 21.9 74 74 SW 12 19 30.07 1018 10 16 0.01 0.25
1:55 pm 13:55 Partly Cloudy 81 27.2 72 22.2 74 74 SW 10 17 30.07 1018 10 16 0.01 0.25
2:15 pm 14:15 Mostly Cloudy 80 26.7 71 21.6 74 74 SW 10 17 30.06 1018 10 16 N/A
2:35 pm 14:35 Mostly Cloudy 82 27.5 69 20.6 66 66 SW 14 22 30.06 1018 10 16 0.01 0.25
2:55 pm 14:55 Partly Cloudy 83 28.4 70 20.9 64 64 SW 17 28 30.06 1018 10 16 0.01 0.25
3:15 pm 15:15 Mostly Cloudy 83 28.4 71 21.5 66 66 SW 16 26 30.05 1017 10 16 N/A
3:35 pm 15:35 Mostly Cloudy 82 27.6 72 22.3 73 73 SSW 16 26 30.06 1018 10 16 0.01 0.25
3:55 pm 15:55 Mostly Cloudy 82 27.8 71 21.9 70 70 S 9 15 30.05 1017 10 16 0.01 0.25
4:15 pm 16:15 Cloudy 78 25.6 72 22.3 82 82 W 15 24 30.07 1018 10 16 N/A
4:35 pm 16:35 Mostly Cloudy with Rain 74 23.4 69 20.8 85 85 WSW 16 26 30.07 1018 7 11 N/A
4:55 pm 16:55 Partly Cloudy with Light Rain 73 22.9 71 21.9 94 94 SW 8 13 30.07 1018 10 16 N/A
5:15 pm 17:15 Partly Cloudy with Nearby Thunderstorms 76 24.5 71 21.9 85 85 SW 9 15 30.06 1018 10 16 N/A
5:35 pm 17:35 Cloudy with Nearby Thunderstorms 76 24.4 72 22.1 87 87 SW 6 9 30.08 1019 10 16 N/A
5:55 pm 17:55 Partly Cloudy 78 25.5 72 22.1 82 82 SW 10 17 30.08 1019 10 16 0.01 0.25
6:15 pm 18:15 Partly Cloudy 80 26.4 71 21.8 76 76 SW 9 15 30.08 1019 10 16 N/A
6:35 pm 18:35 Partly Cloudy 79 26.3 71 21.9 77 77 SSW 10 17 30.08 1019 10 16 N/A
6:55 pm 18:55 Partly Cloudy 77 24.8 72 22.2 86 86 S 10 17 30.07 1018 10 16 N/A
7:15 pm 19:15 Partly Cloudy with Nearby Thunderstorms 77 24.8 72 22 84 84 S 8 13 30.07 1018 10 16 N/A
7:35 pm 19:35 Cloudy with Thunderstorms 73 22.8 70 21 90 90 W 14 22 30.11 1020 10 16 N/A
7:55 pm 19:55 Mostly Cloudy with Thunderstorms 72 22 72 22 100 100 W 5 7 30.10 1019 10 16 N/A
8:15 pm 20:15 Mostly Cloudy with Nearby Thunderstorms 72 22.1 71 21.9 99 99 SSW 7 11 30.11 1020 10 16 N/A
8:35 pm 20:35 Partly Cloudy 72 22.3 71 21.8 97 97 SSW 5 7 30.11 1020 10 16 N/A
8:55 pm 20:55 Sunny with Mist and Fog 72 22.1 72 22.1 100 100 N N/A 30.11 1020 7 11 N/A
9:15 pm 21:15 Clear 70 21 N/A N/A N N/A 30.11 1020 10 16 N/A
9:35 pm 21:35 Clear 70 21 N/A N/A N 3 6 30.11 1020 10 16 N/A
9:55 pm 21:55 Clear 70 21 N/A N/A N N/A 30.12 1020 10 16 N/A
10:15 pm 22:15 Clear 68 20 N/A N/A N N/A 30.13 1020 7 11 N/A
10:35 pm 22:35 Mostly Cloudy with Mist and Fog 68 20 N/A N/A N N/A 30.14 1021 1 2 N/A
10:55 pm 22:55 Partly Cloudy with Mist and Fog 68 20 N/A N/A N N/A 30.14 1021 4 6 N/A
11:15 pm 23:15 Mostly Cloudy with Mist and Fog 68 20 N/A N/A N N/A 30.14 1021 1 2 N/A
11:35 pm 23:35 Hazy 68 20 N/A N/A N N/A 30.14 1021 4 6 0.01 0.25
11:55 pm 23:55 Mostly Cloudy with Mist and Fog 68 20 N/A N/A N N/A 30.14 1021 1 2 0.01 0.25

Powered by AerisWeather